Weather Roundup
Issued by NWS Corpus Christi, TX

Home | Current Version | Previous Version | Text Only | Print | Product List | Glossary On
Versions: 1 2 3 4 5 6 7 8 9 10 11 12 13 14 15 16 17 18 19 20 21 22 23 24 25 26 27 28 29 30 31 32 33 34 35 36 37 38 39 40 41 42 43 44 45 46 47 48 49 50
000
ASUS44 KCRP 211210
HRRCRP

SOUTH TEXAS REGIONAL WEATHER ROUNDUP
NATIONAL WEATHER SERVICE CORPUS CHRISTI TX
700 AM CDT TUE OCT 21 2014


TXZ229>244-211300-
...CORPUS CHRISTI AREA OBSERVATIONS...

CITY           SKY/WX    TMP DP  RH WIND       PRES   REMARKS
CORPUS CHRISTI PTCLDY    71  69  93 NE12      29.96S
NAS CORPUS CHR PTCLDY    75  71  87 NE10      29.95S
ROCKPORT       CLEAR     70  67  90 NE9       29.97R
KINGSVILLE NAS PTCLDY    70  70 100 N9        29.96R
ALICE          PTCLDY    69  67  93 NE10      29.97R FOG
FALFURRIAS     CLOUDY    70  69  96 N3        29.95R
$$

...VICTORIA AREA OBSERVATIONS...

CITY           SKY/WX    TMP DP  RH WIND       PRES   REMARKS
VICTORIA       CLEAR     62  60  93 N6        30.01R FOG
BEEVILLE       FAIR      66  66  98 NE7       29.99S
PLEASANTON     CLEAR     61  58  88 CALM      30.03R
SAN ANTONIO    PTCLDY    62  58  86 NW3       30.04R
$$

...LAREDO AREA OBSERVATIONS...

CITY           SKY/WX    TMP DP  RH WIND       PRES   REMARKS
LAREDO         CLOUDY    72  71  96 NE6       30.01R
COTULLA        MOCLDY    67  63  87 NE9       30.01R
DEL RIO        CLOUDY    68  59  73 E6        30.02R
MCALLEN        PTCLDY    71  69  93 N7        29.94R
HEBBRONVILLE   MOCLDY    69  68  95 NE6       29.99S
$$

...OTHER TEXAS OBSERVATIONS...

CITY           SKY/WX    TMP DP  RH WIND       PRES   REMARKS
BROWNSVILLE    CLEAR     70  68  93 N3        29.91S
HOUSTON        PTCLDY    58  54  86 NE3       30.03R
COL. STATION   CLEAR     58  54  86 CALM      30.05R
AUSTIN         CLEAR     55  54  96 CALM      30.05R
WACO           CLEAR     56  55  97 CALM      30.07R FOG
FORT WORTH     PTCLDY    60  56  86 CALM      30.07R
WICHITA FALLS  CLEAR     59  56  89 CALM      30.06S
LUBBOCK        PTCLDY    50  47  89 NW3       30.12R
EL PASO        PTCLDY    58  54  86 N6        30.07R
$$

...MARINE OBSERVATIONS...

STATION/POSITION TIME  SKY/WX   TEMP    WIND        PRES    VSBY  WAVE   SWELL
                                AIR SEA DIR/SP/G                  HT/PER HT/PER
                 (UTC)          (F)     (DEG/KT/KT) (MB)    (MI)  (FT/S) (FT/S)
PORT ARANSAS     1200            77 78   50/ 16/ 17 1014.7R
BUOY 90 E PORT A 1200            78 81   70/ 16/ 19 1014.5R         4/ 5
BUOY 45 SE BAFFI 1200            79 81   60/ 17/ 21 1012.7R         6/ 7
BUOY 200 E PT IS 1200            81 81   80/ 17/ 19 1012.2R         5/ 6
BUOY 15 E GALVES 1200            74 78   60/ 14/ 17 1015.5R         3/ 4
$$


USA.gov is the U.S. government's official web portal to all federal, state and local government web resources and services.